This demonstration page uses our WeatherBlox Daily Observations layout. Learn more.

Hourly Observations for October 27, 2016

Temp ( °F °C ) Dew Point ( °F °C ) Humidity (%) Winds ( mph kmh ) Pressure ( in mb ) Visibility ( mi km ) Precip ( " mm )
12:15 am 00:15 Clear 53 11.5 37 2.8 55 55 S 7 11 30.15 1021 10 16.09344 0 0
12:35 am 00:35 Clear 52 11.3 37 3 57 57 S 8 13 30.15 1021 10 16.09344 0 0
12:55 am 00:55 Clear 53 11.5 38 3.2 57 57 S 7 11 30.15 1021 10 16.09344 0 0
1:15 am 01:15 Clear 55 13 39 3.8 54 54 S 6 9 30.15 1021 10 16.09344 0 0
1:35 am 01:35 Clear 55 12.8 39 4 55 55 S 6 9 30.15 1021 10 16.09344 0 0
1:55 am 01:55 Clear 51 10.6 38 3.3 61 61 S 6 9 30.18 1022 10 16.09344 0 0
2:15 am 02:15 Clear 49 9.5 37 3 64 64 S 6 9 30.18 1022 10 16.09344 0 0
2:35 am 02:35 Clear 49 9.3 38 3.3 66 66 S 5 7 30.18 1022 10 16.09344 0 0
2:55 am 02:55 Clear 48 9 38 3.5 69 69 S 6 9 30.18 1022 10 16.09344 0 0
3:15 am 03:15 Clear 48 8.9 38 3.6 70 70 S 6 9 30.18 1022 10 16.09344 0 0
3:35 am 03:35 Clear 49 9.7 39 4.1 68 68 S 7 11 30.18 1022 10 16.09344 0 0
3:55 am 03:55 Clear 48 9 39 4 71 71 SSE 6 9 30.18 1022 10 16.09344 0 0
4:15 am 04:15 Clear 46 8 39 4 76 76 S 7 11 30.18 1022 10 16.09344 0 0
4:35 am 04:35 Clear 45 7.2 39 3.9 80 80 S 8 13 30.21 1023 10 16.09344 0 0
4:55 am 04:55 Clear 47 8.4 40 4.6 77 77 S 8 13 30.15 1021 10 16.09344 0 0
5:15 am 05:15 Clear 48 9.1 40 4.2 72 72 S 9 15 30.15 1021 10 16.09344 0 0
5:35 am 05:35 Clear 48 8.7 38 3.6 71 71 SSW 8 13 30.15 1021 10 16.09344 0 0
5:55 am 05:55 Clear 47 8.4 38 3.6 72 72 SSW 7 11 30.15 1021 10 16.09344 0 0
6:15 am 06:15 Clear 47 8.5 38 3.5 71 71 SSW 7 11 30.15 1021 10 16.09344 0 0
6:35 am 06:35 Clear 47 8.5 38 3.5 71 71 SSW 7 11 30.15 1021 10 16.09344 0 0
6:55 am 06:55 Clear 47 8.2 38 3.5 73 73 SSW 8 13 30.15 1021 10 16.09344 0 0
7:15 am 07:15 Clear 46 7.6 38 3.2 74 74 SSW 6 9 30.15 1021 10 16.09344 0 0
7:35 am 07:35 Clear 47 8.5 38 3.5 71 71 SSW 9 15 30.15 1021 10 16.09344 0 0
7:55 am 07:55 Clear 47 8.2 38 3.4 72 72 SSW 9 15 30.15 1021 10 16.09344 0 0
8:15 am 08:15 Sunny 47 8.6 38 3.5 71 71 SW 7 11 30.18 1022 10 16.09344 0 0
8:35 am 08:35 Sunny 47 8.6 38 3.2 69 69 SSW 3 6 30.18 1022 10 16.09344 0 0
8:55 am 08:55 Sunny 49 9.3 38 3.6 68 68 SSW 5 7 30.18 1022 10 16.09344 0 0
9:15 am 09:15 Sunny 51 10.6 39 3.8 63 63 SSW 6 9 30.18 1022 10 16.09344 0 0
9:35 am 09:35 Sunny 53 11.9 39 3.8 58 58 SW 5 7 30.15 1021 10 16.09344 0 0
9:55 am 09:55 Sunny 56 13.1 39 3.8 54 54 SW 7 11 30.15 1021 10 16.09344 0 0
10:15 am 10:15 Sunny 58 14.5 38 3.5 48 48 SW 9 15 30.12 1020 10 16.09344 0 0
10:35 am 10:35 Sunny 61 15.9 38 3.4 43 43 SW 7 11 30.12 1020 10 16.09344 0 0
10:55 am 10:55 Sunny 64 17.5 38 3.2 39 39 SSW 10 17 30.09 1019 10 16.09344 0 0
11:15 am 11:15 Sunny 67 19.2 37 3 34 34 SW 9 15 30.09 1019 10 16.09344 0 0
11:35 am 11:35 Sunny 68 20.2 37 2.9 32 32 SW 9 15 30.09 1019 10 16.09344 0 0
11:55 am 11:55 Sunny 71 21.5 37 2.7 29 29 WSW 10 17 30.03 1017 10 16.09344 0 0
12:15 pm 12:15 Sunny 72 22 37 2.8 28 28 WSW 10 17 30.03 1017 10 16.09344 0 0
12:35 pm 12:35 Sunny 72 22.4 37 2.9 28 28 SW 12 19 30.03 1017 10 16.09344 0 0
12:55 pm 12:55 Sunny 73 23 37 2.8 27 27 SW 12 19 30.03 1017 10 16.09344 0 0
1:15 pm 13:15 Sunny 75 24 37 2.8 25 25 SW 12 19 30.03 1017 10 16.09344 0 0
1:35 pm 13:35 Sunny 76 24.7 37 2.7 24 24 SW 13 20 30 1016 10 16.09344 0 0
1:55 pm 13:55 Sunny 78 25.5 37 3 23 23 SW 14 22 30 1016 10 16.09344 0 0
2:15 pm 14:15 Sunny 78 25.8 38 3.1 23 23 SSW 14 22 29.97 1015 10 16.09344 0 0
2:35 pm 14:35 Sunny 80 26.6 38 3.6 23 23 SSW 16 26 29.97 1015 10 16.09344 0 0
2:55 pm 14:55 Sunny 81 27 39 4 23 23 SSW 14 22 29.94 1014 10 16.09344 0 0
3:15 pm 15:15 Sunny 81 27.2 40 4.5 23 23 SSW 16 26 29.94 1014 10 16.09344 0 0
3:35 pm 15:35 Sunny 82 28 39 4 21 21 S 18 30 29.91 1013 10 16.09344 0 0
3:55 pm 15:55 Sunny 83 28.6 36 2.3 18 18 SSW 14 22 29.91 1013 10 16.09344 0 0
4:15 pm 16:15 Sunny 83 28.5 37 2.5 19 19 SSW 14 22 29.88 1012 10 16.09344 0 0
4:35 pm 16:35 Sunny 83 28.5 34 0.9 17 17 SSW 18 30 29.88 1012 10 16.09344 0 0
4:55 pm 16:55 Sunny 83 28.5 35 1.4 17 17 S 15 24 29.88 1012 10 16.09344 0 0
5:15 pm 17:15 Sunny 83 28.1 35 1.5 18 18 S 17 28 29.88 1012 10 16.09344 0 0
5:35 pm 17:35 Sunny 82 27.8 37 2.5 20 20 SSW 16 26 29.88 1012 10 16.09344 0 0
5:55 pm 17:55 Sunny 81 27.2 37 3 21 21 S 15 24 29.88 1012 10 16.09344 0 0
6:15 pm 18:15 Sunny 79 26 38 3.2 23 23 S 12 19 29.91 1013 10 16.09344 0 0
6:35 pm 18:35 Sunny 74 23.6 38 3.1 26 26 S 10 17 29.91 1013 10 16.09344 0 0
6:55 pm 18:55 Clear 72 22.3 37 3 28 28 SSE 8 13 29.94 1014 10 16.09344 0 0
7:15 pm 19:15 Clear 68 20 37 3 33 33 SSE 8 13 29.94 1014 10 16.09344 0 0
7:35 pm 19:35 Clear 66 18.8 37 3 35 35 SSE 9 15 29.97 1015 10 16.09344 0 0
7:55 pm 19:55 Clear 66 19 39 3.8 37 37 SSE 10 17 29.97 1015 10 16.09344 0 0
8:15 pm 20:15 Clear 67 19.4 39 3.7 36 36 SSE 14 22 29.97 1015 10 16.09344 0 0
8:35 pm 20:35 Clear 68 20 39 4 35 35 SSE 14 22 29.94 1014 10 16.09344 0 0
8:55 pm 20:55 Clear 68 19.9 39 4 35 35 S 15 24 29.94 1014 10 16.09344 0 0
9:15 pm 21:15 Clear 67 19.5 39 4.1 36 36 S 14 22 29.97 1015 10 16.09344 0 0
9:35 pm 21:35 Clear 66 18.8 40 4.6 39 39 S 14 22 29.97 1015 10 16.09344 0 0
9:55 pm 21:55 Clear 66 18.8 41 5 40 40 S 13 20 29.94 1014 10 16.09344 0 0
10:15 pm 22:15 Clear 65 18.6 42 5.5 42 42 S 14 22 29.94 1014 10 16.09344 0 0
10:35 pm 22:35 Clear 65 18.3 42 5.7 44 44 S 13 20 29.94 1014 10 16.09344 0 0
10:55 pm 22:55 Clear 64 18 43 6 46 46 S 15 24 29.94 1014 10 16.09344 0 0
11:15 pm 23:15 Clear 64 17.6 43 6.3 48 48 S 13 20 29.94 1014 10 16.09344 0 0
11:35 pm 23:35 Clear 63 17.2 44 6.6 50 50 S 15 24 29.94 1014 10 16.09344 0 0
11:55 pm 23:55 Clear 63 17.2 45 7.1 52 52 S 15 24 29.94 1014 10 16.09344 0 0

Powered by AerisWeather